PTRZB SNXQ-SNAB

Flight info

Callsign PTRZB
Flight time 1h 23m
Altitude 7500
Route DCT 1038S04230W 0945S04151W 0905S04127W 0808S04108W DCT
Aircraft C208/L-SDFGR/C

Departure

Time 2026-04-28 15:42
Airport Xique-Xique Airport (SNXQ)

Arrival

Time 2026-04-28 17:06
Airport Araripina Airport (SNAB)
Time Latitude Longitude Altitude Speed Heading
2026-04-28 15:33 -10.83197 -42.68535 1403 ft 0 kts
2026-04-28 15:36 -10.83208 -42.68538 1407 ft 2 kts 24°
2026-04-28 15:36 -10.83216 -42.68546 1408 ft 2 kts 75°
2026-04-28 15:37 -10.83213 -42.68556 1405 ft 2 kts 117°
2026-04-28 15:37 -10.83212 -42.68560 1405 ft 0 kts 109°
2026-04-28 15:38 -10.83229 -42.68541 1408 ft 8 kts 154°
2026-04-28 15:38 -10.83279 -42.68547 1405 ft 7 kts 201°
2026-04-28 15:38 -10.83283 -42.68548 1405 ft 0 kts 201°
2026-04-28 15:39 -10.83322 -42.68553 1409 ft 9 kts 154°
2026-04-28 15:39 -10.83370 -42.68457 1406 ft 18 kts 111°
2026-04-28 15:39 -10.83418 -42.68333 1413 ft 19 kts 104°
2026-04-28 15:40 -10.83482 -42.68161 1414 ft 34 kts 112°
2026-04-28 15:40 -10.83554 -42.67976 1413 ft 22 kts 112°
2026-04-28 15:40 -10.83604 -42.67848 1415 ft 17 kts 110°
2026-04-28 15:40 -10.83611 -42.67762 1415 ft 0 kts 108°
2026-04-28 15:41 -10.83626 -42.67751 1416 ft 6 kts 182°
2026-04-28 15:41 -10.83633 -42.67775 1419 ft 4 kts 292°
2026-04-28 15:41 -10.83632 -42.67777 1419 ft 0 kts 292°
2026-04-28 15:42 -10.83622 -42.67802 1420 ft 29 kts 292°
2026-04-28 15:42 -10.83436 -42.68281 1426 ft 105 kts 291°
2026-04-28 15:42 -10.83089 -42.68975 1748 ft 114 kts 314°
2026-04-28 15:42 -10.82331 -42.69097 2091 ft 120 kts 25°
2026-04-28 15:43 -10.81791 -42.68466 2454 ft 119 kts 57°
2026-04-28 15:43 -10.81284 -42.67739 2767 ft 133 kts 55°
2026-04-28 15:43 -10.80739 -42.66947 3112 ft 139 kts 55°
2026-04-28 15:43 -10.80180 -42.66132 3466 ft 142 kts 55°
2026-04-28 15:44 -10.79713 -42.65250 3816 ft 142 kts 67°
2026-04-28 15:44 -10.79125 -42.64444 4165 ft 143 kts 43°
2026-04-28 15:44 -10.78391 -42.63755 4517 ft 144 kts 43°
2026-04-28 15:44 -10.77649 -42.63068 4867 ft 144 kts 42°
2026-04-28 15:45 -10.76911 -42.62390 5212 ft 145 kts 42°
2026-04-28 15:45 -10.76160 -42.61706 5562 ft 145 kts 42°
2026-04-28 15:45 -10.75410 -42.61023 5908 ft 144 kts 41°
2026-04-28 15:45 -10.74662 -42.60338 6256 ft 144 kts 42°
2026-04-28 15:46 -10.74167 -42.59887 6486 ft 144 kts 42°
2026-04-28 15:46 -10.73176 -42.58982 6948 ft 144 kts 41°
2026-04-28 15:46 -10.72429 -42.58300 7296 ft 144 kts 42°
2026-04-28 15:46 -10.71931 -42.57845 7488 ft 148 kts 42°
2026-04-28 15:47 -10.71114 -42.57100 7509 ft 165 kts 42°
2026-04-28 15:47 -10.69942 -42.56031 7512 ft 175 kts 42°
2026-04-28 15:47 -10.69324 -42.55466 7513 ft 178 kts 42°
2026-04-28 15:47 -10.68397 -42.54621 7512 ft 180 kts 42°
2026-04-28 15:48 -10.67463 -42.53769 7512 ft 181 kts 42°
2026-04-28 15:48 -10.66527 -42.52913 7511 ft 181 kts 41°
2026-04-28 15:48 -10.65600 -42.52069 7509 ft 181 kts 42°
2026-04-28 15:48 -10.64660 -42.51212 7511 ft 181 kts 41°
2026-04-28 15:49 -10.63719 -42.50353 7511 ft 182 kts 42°
2026-04-28 15:49 -10.62735 -42.49546 7509 ft 181 kts 35°
2026-04-28 15:49 -10.61705 -42.48803 7509 ft 181 kts 36°
2026-04-28 15:49 -10.60699 -42.48060 7508 ft 182 kts 36°
2026-04-28 15:50 -10.59676 -42.47301 7502 ft 182 kts 36°
2026-04-28 15:50 -10.58654 -42.46547 7495 ft 181 kts 36°
2026-04-28 15:50 -10.57627 -42.45788 7497 ft 181 kts 36°
2026-04-28 15:50 -10.56608 -42.45036 7495 ft 181 kts 36°
2026-04-28 15:51 -10.55587 -42.44283 7498 ft 181 kts 36°
2026-04-28 15:51 -10.54579 -42.43538 7501 ft 181 kts 36°
2026-04-28 15:51 -10.53558 -42.42786 7505 ft 181 kts 36°
2026-04-28 15:51 -10.52535 -42.42031 7500 ft 181 kts 36°
2026-04-28 15:52 -10.51513 -42.41276 7505 ft 181 kts 36°
2026-04-28 15:52 -10.50492 -42.40524 7505 ft 181 kts 36°
2026-04-28 15:52 -10.49471 -42.39771 7505 ft 181 kts 36°
2026-04-28 15:52 -10.48451 -42.39018 7505 ft 181 kts 36°
2026-04-28 15:53 -10.47430 -42.38265 7505 ft 181 kts 36°
2026-04-28 15:53 -10.46421 -42.37521 7499 ft 181 kts 36°
2026-04-28 15:53 -10.45387 -42.36758 7505 ft 181 kts 36°
2026-04-28 15:53 -10.44368 -42.36007 7505 ft 181 kts 36°
2026-04-28 15:54 -10.43360 -42.35263 7502 ft 181 kts 36°
2026-04-28 15:54 -10.42338 -42.34510 7497 ft 181 kts 36°
2026-04-28 15:54 -10.41317 -42.33758 7502 ft 181 kts 36°
2026-04-28 15:54 -10.40296 -42.33004 7502 ft 181 kts 36°
2026-04-28 15:55 -10.39274 -42.32251 7502 ft 181 kts 36°
2026-04-28 15:55 -10.38251 -42.31498 7506 ft 181 kts 36°
2026-04-28 15:55 -10.37243 -42.30756 7500 ft 181 kts 36°
2026-04-28 15:55 -10.36222 -42.30003 7495 ft 181 kts 36°
2026-04-28 15:56 -10.35201 -42.29251 7501 ft 181 kts 36°
2026-04-28 15:56 -10.34178 -42.28496 7502 ft 181 kts 36°
2026-04-28 15:56 -10.33158 -42.27745 7504 ft 181 kts 36°
2026-04-28 15:56 -10.32137 -42.26994 7504 ft 181 kts 36°
2026-04-28 15:57 -10.31114 -42.26239 7499 ft 181 kts 36°
2026-04-28 15:57 -10.30094 -42.25489 7500 ft 181 kts 36°
2026-04-28 15:57 -10.29086 -42.24746 7500 ft 181 kts 36°
2026-04-28 15:57 -10.28063 -42.23993 7503 ft 181 kts 36°
2026-04-28 15:58 -10.27043 -42.23242 7504 ft 181 kts 36°
2026-04-28 15:58 -10.26019 -42.22488 7500 ft 181 kts 36°
2026-04-28 15:58 -10.24996 -42.21735 7505 ft 181 kts 36°
2026-04-28 15:58 -10.23973 -42.20982 7506 ft 181 kts 36°
2026-04-28 15:59 -10.22953 -42.20230 7500 ft 181 kts 36°
2026-04-28 15:59 -10.21931 -42.19479 7500 ft 181 kts 36°
2026-04-28 15:59 -10.20922 -42.18736 7506 ft 181 kts 36°
2026-04-28 15:59 -10.19902 -42.17985 7504 ft 181 kts 36°
2026-04-28 16:00 -10.18881 -42.17234 7504 ft 181 kts 36°
2026-04-28 16:00 -10.17859 -42.16482 7506 ft 181 kts 36°
2026-04-28 16:00 -10.16838 -42.15731 7502 ft 181 kts 36°
2026-04-28 16:00 -10.15814 -42.14978 7504 ft 181 kts 36°
2026-04-28 16:01 -10.14794 -42.14227 7507 ft 181 kts 36°
2026-04-28 16:01 -10.13768 -42.13473 7506 ft 181 kts 36°
2026-04-28 16:01 -10.12757 -42.12729 7507 ft 181 kts 36°
2026-04-28 16:01 -10.11732 -42.11975 7507 ft 181 kts 36°
2026-04-28 16:02 -10.10710 -42.11224 7503 ft 181 kts 36°
2026-04-28 16:02 -10.09699 -42.10481 7497 ft 181 kts 36°
2026-04-28 16:02 -10.08676 -42.09728 7507 ft 181 kts 36°
2026-04-28 16:02 -10.07652 -42.08976 7503 ft 181 kts 36°
2026-04-28 16:03 -10.06630 -42.08224 7504 ft 181 kts 36°
2026-04-28 16:03 -10.05608 -42.07473 7507 ft 181 kts 36°
2026-04-28 16:03 -10.04587 -42.06722 7498 ft 181 kts 36°
2026-04-28 16:03 -10.03572 -42.05976 7506 ft 181 kts 36°
2026-04-28 16:04 -10.02550 -42.05226 7505 ft 181 kts 36°
2026-04-28 16:04 -10.01527 -42.04473 7507 ft 181 kts 36°
2026-04-28 16:04 -10.00501 -42.03720 7504 ft 181 kts 36°
2026-04-28 16:04 -9.99479 -42.02969 7497 ft 181 kts 36°
2026-04-28 16:05 -9.98469 -42.02228 7507 ft 181 kts 36°
2026-04-28 16:05 -9.97448 -42.01477 7502 ft 181 kts 36°
2026-04-28 16:05 -9.96425 -42.00725 7507 ft 181 kts 36°
2026-04-28 16:05 -9.95404 -41.99975 7501 ft 181 kts 36°
2026-04-28 16:06 -9.94380 -41.99224 7504 ft 181 kts 36°
2026-04-28 16:06 -9.93357 -41.98472 7502 ft 181 kts 36°
2026-04-28 16:06 -9.92346 -41.97730 7507 ft 181 kts 36°
2026-04-28 16:06 -9.91325 -41.96979 7505 ft 181 kts 36°
2026-04-28 16:07 -9.90302 -41.96229 7507 ft 181 kts 36°
2026-04-28 16:07 -9.89280 -41.95479 7500 ft 181 kts 36°
2026-04-28 16:07 -9.87236 -41.93979 7500 ft 181 kts 36°
2026-04-28 16:08 -9.86211 -41.93225 7508 ft 181 kts 36°
2026-04-28 16:08 -9.85202 -41.92486 7508 ft 181 kts 36°
2026-04-28 16:08 -9.84177 -41.91733 7500 ft 181 kts 36°
2026-04-28 16:09 -9.82135 -41.90235 7502 ft 181 kts 36°
2026-04-28 16:09 -9.81114 -41.89485 7507 ft 181 kts 36°
2026-04-28 16:09 -9.80092 -41.88735 7508 ft 181 kts 36°
2026-04-28 16:10 -9.78048 -41.87237 7502 ft 181 kts 36°
2026-04-28 16:10 -9.77025 -41.86486 7502 ft 181 kts 36°
2026-04-28 16:10 -9.74989 -41.84997 7498 ft 181 kts 34°
2026-04-28 16:11 -9.72822 -41.83697 7505 ft 181 kts 30°
2026-04-28 16:11 -9.70650 -41.82386 7507 ft 181 kts 30°
2026-04-28 16:12 -9.68496 -41.81091 7502 ft 181 kts 30°
2026-04-28 16:12 -9.67410 -41.80438 7508 ft 181 kts 30°
2026-04-28 16:13 -9.65239 -41.79133 7497 ft 181 kts 30°
2026-04-28 16:13 -9.64154 -41.78481 7505 ft 181 kts 30°
2026-04-28 16:13 -9.61983 -41.77177 7505 ft 181 kts 30°
2026-04-28 16:14 -9.59825 -41.75879 7504 ft 182 kts 30°
2026-04-28 16:14 -9.57645 -41.74570 7503 ft 181 kts 30°
2026-04-28 16:15 -9.55485 -41.73272 7506 ft 181 kts 30°
2026-04-28 16:15 -9.54399 -41.72621 7502 ft 181 kts 30°
2026-04-28 16:15 -9.53314 -41.71970 7506 ft 181 kts 30°
2026-04-28 16:16 -9.51142 -41.70665 7509 ft 181 kts 30°
2026-04-28 16:16 -9.50057 -41.70014 7506 ft 181 kts 30°
2026-04-28 16:17 -9.47886 -41.68710 7509 ft 181 kts 30°
2026-04-28 16:17 -9.46815 -41.68068 7502 ft 181 kts 30°
2026-04-28 16:17 -9.45729 -41.67416 7506 ft 181 kts 30°
2026-04-28 16:17 -9.44644 -41.66765 7506 ft 181 kts 30°
2026-04-28 16:18 -9.43559 -41.66114 7502 ft 181 kts 30°
2026-04-28 16:18 -9.42473 -41.65462 7509 ft 181 kts 30°
2026-04-28 16:18 -9.41385 -41.64810 7505 ft 181 kts 30°
2026-04-28 16:18 -9.40301 -41.64158 7505 ft 181 kts 30°
2026-04-28 16:19 -9.39216 -41.63508 7509 ft 181 kts 30°
2026-04-28 16:19 -9.38131 -41.62857 7509 ft 181 kts 30°
2026-04-28 16:19 -9.37058 -41.62214 7509 ft 181 kts 30°
2026-04-28 16:19 -9.35968 -41.61561 7509 ft 181 kts 30°
2026-04-28 16:20 -9.34880 -41.60907 7508 ft 181 kts 30°
2026-04-28 16:20 -9.33809 -41.60266 7504 ft 181 kts 30°
2026-04-28 16:20 -9.32724 -41.59615 7509 ft 181 kts 30°
2026-04-28 16:20 -9.31635 -41.58961 7509 ft 181 kts 30°
2026-04-28 16:21 -9.30549 -41.58311 7503 ft 181 kts 30°
2026-04-28 16:21 -9.29462 -41.57660 7505 ft 181 kts 30°
2026-04-28 16:21 -9.28378 -41.57008 7502 ft 181 kts 30°
2026-04-28 16:21 -9.27306 -41.56367 7508 ft 181 kts 30°
2026-04-28 16:22 -9.26221 -41.55715 7506 ft 181 kts 30°
2026-04-28 16:22 -9.25135 -41.55066 7504 ft 181 kts 30°
2026-04-28 16:22 -9.24049 -41.54413 7500 ft 181 kts 30°
2026-04-28 16:22 -9.22961 -41.53763 7507 ft 181 kts 30°
2026-04-28 16:23 -9.21874 -41.53111 7505 ft 181 kts 30°
2026-04-28 16:23 -9.20790 -41.52462 7510 ft 181 kts 30°
2026-04-28 16:23 -9.19704 -41.51811 7510 ft 181 kts 30°
2026-04-28 16:23 -9.18631 -41.51168 7503 ft 181 kts 30°
2026-04-28 16:24 -9.17542 -41.50516 7506 ft 181 kts 30°
2026-04-28 16:24 -9.16455 -41.49864 7508 ft 181 kts 30°
2026-04-28 16:24 -9.15367 -41.49213 7510 ft 181 kts 30°
2026-04-28 16:24 -9.14283 -41.48564 7507 ft 181 kts 30°
2026-04-28 16:25 -9.13210 -41.47921 7499 ft 181 kts 30°
2026-04-28 16:25 -9.12121 -41.47270 7506 ft 181 kts 30°
2026-04-28 16:25 -9.11034 -41.46618 7505 ft 181 kts 30°
2026-04-28 16:25 -9.09945 -41.45967 7507 ft 181 kts 30°
2026-04-28 16:26 -9.08871 -41.45323 7511 ft 181 kts 30°
2026-04-28 16:26 -9.07732 -41.44782 7502 ft 180 kts 17°
2026-04-28 16:26 -9.06533 -41.44404 7508 ft 180 kts 18°
2026-04-28 16:26 -9.05341 -41.44004 7509 ft 181 kts 18°
2026-04-28 16:27 -9.04161 -41.43607 7509 ft 181 kts 18°
2026-04-28 16:27 -9.02965 -41.43207 7510 ft 181 kts 18°
2026-04-28 16:27 -9.00563 -41.42405 7510 ft 181 kts 18°
2026-04-28 16:28 -8.99381 -41.42010 7510 ft 181 kts 18°
2026-04-28 16:28 -8.98574 -41.41740 7510 ft 181 kts 18°
2026-04-28 16:28 -8.96986 -41.41209 7510 ft 181 kts 18°
2026-04-28 16:28 -8.95789 -41.40810 7510 ft 181 kts 18°
2026-04-28 16:29 -8.93394 -41.40010 7505 ft 181 kts 18°
2026-04-28 16:29 -8.91003 -41.39212 7510 ft 181 kts 18°
2026-04-28 16:30 -8.89807 -41.38812 7510 ft 181 kts 18°
2026-04-28 16:30 -8.88626 -41.38418 7510 ft 181 kts 18°
2026-04-28 16:30 -8.87429 -41.38018 7511 ft 181 kts 18°
2026-04-28 16:30 -8.86232 -41.37618 7511 ft 181 kts 18°
2026-04-28 16:31 -8.85032 -41.37218 7504 ft 181 kts 18°
2026-04-28 16:31 -8.83831 -41.36817 7511 ft 181 kts 18°
2026-04-28 16:31 -8.82651 -41.36423 7510 ft 181 kts 18°
2026-04-28 16:31 -8.81456 -41.36025 7510 ft 181 kts 18°
2026-04-28 16:32 -8.80260 -41.35625 7511 ft 181 kts 18°
2026-04-28 16:32 -8.78267 -41.34961 7511 ft 181 kts 18°
2026-04-28 16:32 -8.77071 -41.34560 7511 ft 181 kts 18°
2026-04-28 16:33 -8.75873 -41.34162 7511 ft 181 kts 18°
2026-04-28 16:33 -8.75082 -41.33897 7504 ft 181 kts 18°
2026-04-28 16:33 -8.73479 -41.33363 7511 ft 181 kts 18°
2026-04-28 16:33 -8.72283 -41.32964 7511 ft 181 kts 18°
2026-04-28 16:34 -8.71088 -41.32565 7507 ft 181 kts 18°
2026-04-28 16:34 -8.69888 -41.32166 7511 ft 181 kts 18°
2026-04-28 16:34 -8.68706 -41.31771 7511 ft 181 kts 18°
2026-04-28 16:34 -8.67508 -41.31372 7505 ft 181 kts 18°
2026-04-28 16:35 -8.66313 -41.30973 7511 ft 181 kts 18°
2026-04-28 16:35 -8.65115 -41.30573 7511 ft 181 kts 18°
2026-04-28 16:35 -8.63916 -41.30175 7508 ft 181 kts 18°
2026-04-28 16:35 -8.62720 -41.29775 7510 ft 181 kts 18°
2026-04-28 16:36 -8.61519 -41.29375 7511 ft 181 kts 18°
2026-04-28 16:36 -8.60338 -41.28982 7510 ft 181 kts 18°
2026-04-28 16:36 -8.59140 -41.28582 7505 ft 181 kts 18°
2026-04-28 16:36 -8.57939 -41.28181 7510 ft 181 kts 18°
2026-04-28 16:37 -8.56743 -41.27784 7502 ft 181 kts 18°
2026-04-28 16:37 -8.55546 -41.27383 7510 ft 181 kts 18°
2026-04-28 16:37 -8.54347 -41.26985 7505 ft 181 kts 18°
2026-04-28 16:38 -8.51966 -41.26191 7507 ft 181 kts 18°
2026-04-28 16:38 -8.50768 -41.25792 7510 ft 181 kts 18°
2026-04-28 16:38 -8.49568 -41.25392 7505 ft 181 kts 18°
2026-04-28 16:38 -8.48381 -41.24997 7510 ft 181 kts 18°
2026-04-28 16:39 -8.47182 -41.24598 7504 ft 181 kts 18°
2026-04-28 16:39 -8.45982 -41.24198 7511 ft 181 kts 18°
2026-04-28 16:39 -8.44782 -41.23799 7511 ft 181 kts 18°
2026-04-28 16:39 -8.43598 -41.23404 7503 ft 181 kts 18°
2026-04-28 16:40 -8.42398 -41.23005 7511 ft 181 kts 18°
2026-04-28 16:40 -8.41200 -41.22605 7511 ft 181 kts 18°
2026-04-28 16:40 -8.40001 -41.22207 7499 ft 181 kts 18°
2026-04-28 16:40 -8.38822 -41.21813 7511 ft 181 kts 18°
2026-04-28 16:41 -8.37618 -41.21413 7511 ft 181 kts 18°
2026-04-28 16:41 -8.36421 -41.21015 7505 ft 181 kts 18°
2026-04-28 16:41 -8.35223 -41.20616 7511 ft 181 kts 18°
2026-04-28 16:41 -8.34025 -41.20217 7509 ft 181 kts 18°
2026-04-28 16:42 -8.32827 -41.19818 7504 ft 181 kts 18°
2026-04-28 16:42 -8.31631 -41.19421 7510 ft 181 kts 18°
2026-04-28 16:42 -8.30451 -41.19028 7510 ft 181 kts 18°
2026-04-28 16:42 -8.29254 -41.18629 7505 ft 181 kts 18°
2026-04-28 16:43 -8.28055 -41.18231 7506 ft 181 kts 18°
2026-04-28 16:43 -8.26858 -41.17832 7510 ft 181 kts 18°
2026-04-28 16:43 -8.25660 -41.17434 7510 ft 181 kts 18°
2026-04-28 16:43 -8.24461 -41.17034 7511 ft 181 kts 18°
2026-04-28 16:44 -8.23278 -41.16641 7505 ft 181 kts 18°
2026-04-28 16:44 -8.22080 -41.16243 7506 ft 181 kts 18°
2026-04-28 16:44 -8.20883 -41.15844 7506 ft 181 kts 18°
2026-04-28 16:44 -8.19683 -41.15446 7511 ft 181 kts 18°
2026-04-28 16:45 -8.18485 -41.15047 7510 ft 181 kts 18°
2026-04-28 16:45 -8.17287 -41.14649 7510 ft 181 kts 18°
2026-04-28 16:45 -8.16092 -41.14252 7511 ft 181 kts 18°
2026-04-28 16:45 -8.14912 -41.13858 7507 ft 181 kts 18°
2026-04-28 16:46 -8.13721 -41.13445 7509 ft 181 kts 23°
2026-04-28 16:46 -8.12732 -41.12674 7503 ft 181 kts 48°
2026-04-28 16:46 -8.11896 -41.11728 7506 ft 181 kts 47°
2026-04-28 16:46 -8.11043 -41.10790 7507 ft 181 kts 47°
2026-04-28 16:47 -8.10196 -41.09850 7508 ft 181 kts 47°
2026-04-28 16:47 -8.09349 -41.08907 7502 ft 181 kts 48°
2026-04-28 16:47 -8.08500 -41.07964 7502 ft 181 kts 48°
2026-04-28 16:47 -8.07662 -41.07031 7509 ft 181 kts 47°
2026-04-28 16:48 -8.06814 -41.06089 7504 ft 181 kts 48°
2026-04-28 16:48 -8.05965 -41.05146 7509 ft 181 kts 47°
2026-04-28 16:48 -8.05116 -41.04204 7509 ft 181 kts 48°
2026-04-28 16:48 -8.04267 -41.03260 7509 ft 181 kts 47°
2026-04-28 16:49 -8.03417 -41.02316 7509 ft 181 kts 47°
2026-04-28 16:49 -8.02578 -41.01385 7509 ft 181 kts 48°
2026-04-28 16:49 -8.01729 -41.00442 7509 ft 181 kts 47°
2026-04-28 16:49 -8.00878 -40.99496 7509 ft 181 kts 48°
2026-04-28 16:50 -8.00028 -40.98553 7509 ft 181 kts 48°
2026-04-28 16:50 -7.99189 -40.97620 7505 ft 181 kts 47°
2026-04-28 16:50 -7.98339 -40.96678 7509 ft 181 kts 48°
2026-04-28 16:50 -7.97493 -40.95737 7503 ft 181 kts 47°
2026-04-28 16:51 -7.96643 -40.94795 7510 ft 181 kts 48°
2026-04-28 16:51 -7.95794 -40.93850 7510 ft 181 kts 47°
2026-04-28 16:51 -7.94943 -40.92908 7510 ft 181 kts 48°
2026-04-28 16:51 -7.94096 -40.91966 7510 ft 181 kts 47°
2026-04-28 16:52 -7.93256 -40.91035 7510 ft 181 kts 48°
2026-04-28 16:52 -7.92407 -40.90092 7510 ft 181 kts 47°
2026-04-28 16:52 -7.91557 -40.89148 7504 ft 181 kts 48°
2026-04-28 16:52 -7.90707 -40.88206 7510 ft 181 kts 48°
2026-04-28 16:53 -7.89856 -40.87261 7510 ft 181 kts 47°
2026-04-28 16:53 -7.89017 -40.86330 7502 ft 181 kts 48°
2026-04-28 16:53 -7.88166 -40.85387 7508 ft 181 kts 48°
2026-04-28 16:53 -7.87315 -40.84442 7508 ft 181 kts 47°
2026-04-28 16:54 -7.86465 -40.83499 7508 ft 181 kts 48°
2026-04-28 16:54 -7.85615 -40.82558 7502 ft 181 kts 47°
2026-04-28 16:54 -7.84767 -40.81616 7508 ft 181 kts 47°
2026-04-28 16:54 -7.84203 -40.80991 7508 ft 181 kts 47°
2026-04-28 16:55 -7.83080 -40.79744 7508 ft 181 kts 47°
2026-04-28 16:55 -7.82230 -40.78803 7508 ft 181 kts 48°
2026-04-28 16:55 -7.81380 -40.77860 7503 ft 181 kts 47°
2026-04-28 16:55 -7.80528 -40.76915 7508 ft 181 kts 48°
2026-04-28 16:56 -7.79687 -40.75984 7508 ft 181 kts 47°
2026-04-28 16:56 -7.78839 -40.75042 7509 ft 181 kts 47°
2026-04-28 16:56 -7.77987 -40.74100 7509 ft 181 kts 47°
2026-04-28 16:56 -7.77137 -40.73156 7502 ft 181 kts 47°
2026-04-28 16:57 -7.76293 -40.72221 7509 ft 181 kts 48°
2026-04-28 16:57 -7.75443 -40.71279 7509 ft 181 kts 47°
2026-04-28 16:57 -7.74587 -40.70330 7279 ft 182 kts 47°
2026-04-28 16:57 -7.73742 -40.69394 6923 ft 178 kts 47°
2026-04-28 16:58 -7.72925 -40.68488 6574 ft 176 kts 47°
2026-04-28 16:58 -7.72103 -40.67577 6219 ft 175 kts 47°
2026-04-28 16:58 -7.71287 -40.66674 5868 ft 174 kts 47°
2026-04-28 16:58 -7.70476 -40.65775 5518 ft 173 kts 48°
2026-04-28 16:59 -7.69668 -40.64880 5168 ft 172 kts 47°
2026-04-28 16:59 -7.68864 -40.63988 4820 ft 172 kts 47°
2026-04-28 16:59 -7.68060 -40.63099 4513 ft 169 kts 47°
2026-04-28 16:59 -7.67306 -40.62263 4493 ft 155 kts 47°
2026-04-28 17:00 -7.66609 -40.61491 4491 ft 147 kts 47°
2026-04-28 17:00 -7.65932 -40.60741 4490 ft 143 kts 48°
2026-04-28 17:00 -7.65267 -40.60006 4490 ft 141 kts 47°
2026-04-28 17:00 -7.64612 -40.59279 4489 ft 139 kts 47°
2026-04-28 17:01 -7.63962 -40.58560 4493 ft 139 kts 47°
2026-04-28 17:01 -7.63310 -40.57838 4490 ft 139 kts 47°
2026-04-28 17:01 -7.62667 -40.57126 4492 ft 141 kts 47°
2026-04-28 17:01 -7.61949 -40.56331 4514 ft 163 kts 48°
2026-04-28 17:02 -7.61155 -40.55452 4512 ft 174 kts 47°
2026-04-28 17:02 -7.60659 -40.54788 4510 ft 177 kts 62°
2026-04-28 17:02 -7.60378 -40.53169 4395 ft 184 kts 97°
2026-04-28 17:02 -7.60759 -40.51969 4094 ft 171 kts 112°
2026-04-28 17:03 -7.61532 -40.49844 3464 ft 155 kts 111°
2026-04-28 17:03 -7.61685 -40.48834 3212 ft 138 kts 76°
2026-04-28 17:03 -7.61112 -40.48230 3183 ft 118 kts 14°
2026-04-28 17:04 -7.60030 -40.49203 2677 ft 121 kts 282°
2026-04-28 17:04 -7.59815 -40.50021 2506 ft 115 kts 284°
2026-04-28 17:05 -7.59367 -40.51436 2488 ft 101 kts 288°
2026-04-28 17:05 -7.59129 -40.52130 2366 ft 107 kts 288°
2026-04-28 17:05 -7.58893 -40.52805 2296 ft 87 kts 289°
2026-04-28 17:06 -7.58670 -40.53444 2204 ft 7 kts 289°
2026-04-28 17:06 -7.58646 -40.53513 2203 ft 12 kts 290°
2026-04-28 17:06 -7.58572 -40.53481 2204 ft 0 kts 98°